COSMOS 2251 DEB

Satellite information

Favourite Embed

Satellite Type and Status

DEBRISIN ORBIT

Key statistics

Satellite COSMOS 2251 DEB at a glance.

Uptime

11816

Days in orbit

Revolutions

≈ 14.6

Per day

Orbit

LEO

Low Earth Orbit

Inclination

74.0

Latest

Satellite identification and parameters

Extended collection of information and parameters for COSMOS 2251 DEB.

Object identification

Identified? True

Debris? True

Object name: COSMOS 2251 DEB

International designator: 1993-036AEX

Object number (NORAD): 34968

Object ID (CCSDS): 34968

Country: COMMONWEALTH OF INDEPENDENT STATES (CIS)

Current information (Y/N): Y

RCS size: SMALL

Orbital parameters

Period: 98.679 minutes

Inclination: 74.04 deg

SMA: 7073.637 km

Apoapsis: 756.189 km

Periapsis: 634.816 km

RAAN: 346.0577 deg

Eccentricy: 0.0085792

Argument of periapsis: 120.8134 deg

Mean anomaly: 240.151 deg

Mean motion: 14.59279812 rev/day

Mean motion (dot): 0.00000976 rev/day2

B* drag term: 0.00020247 1/REarth

Two-line elements (TLE)

Creation date: Oct. 21, 2025, 11:56 p.m.

Reference frame: TEME

Reference center: EARTH

Epoch: Oct. 21, 2025, 7:21 p.m. UTC

TLE line 0: 0 COSMOS 2251 DEB

TLE line 1: 1 34968U 93036AEX 25294.80676616 .00000976 00000-0 20247-3 0 9993

TLE line 2: 2 34968 74.0400 346.0577 0085792 120.8134 240.1510 14.59279812877204

Live tracking on map

Real-time ground track for satellite COSMOS 2251 DEB.

In-orbit conjunctions

A list of the most updated potential collisions computed for object COSMOS 2251 DEB.

Target Orbit TCA Probability of collision Miss distance Type
FENGYUN 1C DEB SSO 2025-08-21 09:42:39 0.0002733287 77.0 (m) DEBRIS
CZ-6A DEB LEO 2025-05-31 19:13:11 0.0001893265 33.0 (m) DEBRIS

Associated space launch

Military communications satellite. Destroyed in a collision with Iridium 33.

COSMOS 2251 DEB was lifted into orbit during the mission ‘Kosmos-3M | Strela-2M 51’, on board a Kosmos-3M space rocket.

The launch took place on June 16, 1993, 4:17 a.m. from 132/1 (132L).

For more information about the launch, click the button.

Launch to space Kosmos-3M | Strela-2M 51
Kosmos-3M | Strela-2M 51

Agency: N/A

Status: Launch Successful

Launch date: June 16, 1993, 4:17 a.m. UTC

Rocket: Kosmos-3M

Launch pad: 132/1 (132L)

Location: Plesetsk Cosmodrome, Russian Federation

...

Latest news about this satellite

There are no fresh news available about this satellite. Check back as we update our databases every day.


Newsletter sign-up

Weekly statistics, charts and insights to help you stay on top of the space industry.